Time,TemperatureF,DewpointF,PressureIn,WindDirection,WindDirectionDegrees,WindSpeedMPH,WindSpeedGustMPH,Humidity,HourlyPrecipIn,Conditions,Clouds,dailyrainin,SolarRadiationWatts/m^2,SoftwareType,DateUTC
2013-07-04 00:02:00,64.0,37.0,-100.00,SSW,200,6.0,12.0,36,0.00,,,0.00,0.000000,,2013-07-04 07:02:00,
2013-07-04 00:12:00,64.0,37.0,-100.00,SSW,200,6.0,12.0,36,0.00,,,0.00,0.000000,,2013-07-04 07:12:00,
2013-07-04 00:21:00,64.0,37.0,-100.00,SSW,200,6.0,12.0,36,0.00,,,0.00,0.000000,,2013-07-04 07:21:00,
2013-07-04 00:31:00,63.0,35.0,-100.00,South,186,6.0,10.0,35,0.00,,,0.00,0.000000,,2013-07-04 07:31:00,
2013-07-04 01:02:00,63.0,35.0,-100.00,South,186,6.0,10.0,35,0.00,,,0.00,0.000000,,2013-07-04 08:02:00,
2013-07-04 01:11:00,63.0,35.0,-100.00,South,186,6.0,10.0,35,0.00,,,0.00,0.000000,,2013-07-04 08:11:00,
2013-07-04 01:21:00,63.0,35.0,-100.00,South,186,6.0,10.0,35,0.00,,,0.00,0.000000,,2013-07-04 08:21:00,
2013-07-04 06:31:00,57.0,38.0,-100.00,South,179,2.0,7.0,49,0.00,,,0.00,23.000000,,2013-07-04 13:31:00,
2013-07-04 07:02:00,57.0,38.0,-100.00,South,179,2.0,7.0,49,0.00,,,0.00,23.000000,,2013-07-04 14:02:00,
2013-07-04 07:11:00,57.0,38.0,-100.00,South,179,2.0,7.0,49,0.00,,,0.00,23.000000,,2013-07-04 14:11:00,
2013-07-04 07:22:00,57.0,38.0,-100.00,South,179,2.0,7.0,49,0.00,,,0.00,23.000000,,2013-07-04 14:22:00,
2013-07-04 07:31:00,63.0,41.0,-100.00,SW,216,3.0,7.0,45,0.00,,,0.00,163.000000,,2013-07-04 14:31:00,
2013-07-04 08:23:00,63.0,41.0,-100.00,SW,216,3.0,7.0,45,0.00,,,0.00,163.000000,,2013-07-04 15:23:00,
2013-07-04 08:31:00,66.0,43.0,-100.00,South,182,6.0,10.0,44,0.00,,,0.00,386.000000,,2013-07-04 15:31:00,
2013-07-04 08:52:00,66.0,43.0,-100.00,South,182,6.0,10.0,44,0.00,,,0.00,386.000000,,2013-07-04 15:52:00,
2013-07-04 09:02:00,66.0,43.0,-100.00,South,182,6.0,10.0,44,0.00,,,0.00,386.000000,,2013-07-04 16:02:00,
2013-07-04 09:11:00,66.0,43.0,-100.00,South,182,6.0,10.0,44,0.00,,,0.00,386.000000,,2013-07-04 16:11:00,
2013-07-04 09:22:00,66.0,43.0,-100.00,South,182,6.0,10.0,44,0.00,,,0.00,386.000000,,2013-07-04 16:22:00,
2013-07-04 09:31:00,71.0,42.0,-100.00,South,182,4.0,10.0,35,0.00,,,0.00,567.000000,,2013-07-04 16:31:00,
2013-07-04 09:52:00,71.0,42.0,-100.00,South,182,4.0,10.0,35,0.00,,,0.00,567.000000,,2013-07-04 16:52:00,
2013-07-04 10:01:00,71.0,42.0,-100.00,South,182,4.0,10.0,35,0.00,,,0.00,567.000000,,2013-07-04 17:01:00,
2013-07-04 10:11:00,71.0,42.0,-100.00,South,182,4.0,10.0,35,0.00,,,0.00,567.000000,,2013-07-04 17:11:00,
2013-07-04 10:22:00,71.0,42.0,-100.00,South,182,4.0,10.0,35,0.00,,,0.00,567.000000,,2013-07-04 17:22:00,
2013-07-04 10:31:00,73.0,37.0,-100.00,SSE,155,5.0,9.0,27,0.00,,,0.00,737.000000,,2013-07-04 17:31:00,
2013-07-04 10:53:00,73.0,37.0,-100.00,SSE,155,5.0,9.0,27,0.00,,,0.00,737.000000,,2013-07-04 17:53:00,
2013-07-04 11:01:00,73.0,37.0,-100.00,SSE,155,5.0,9.0,27,0.00,,,0.00,737.000000,,2013-07-04 18:01:00,
2013-07-04 11:11:00,73.0,37.0,-100.00,SSE,155,5.0,9.0,27,0.00,,,0.00,737.000000,,2013-07-04 18:11:00,
2013-07-04 11:22:00,73.0,37.0,-100.00,SSE,155,5.0,9.0,27,0.00,,,0.00,737.000000,,2013-07-04 18:22:00,
2013-07-04 11:31:00,76.0,38.0,-100.00,South,174,6.0,11.0,25,0.00,,,0.00,861.000000,,2013-07-04 18:31:00,
2013-07-04 12:01:00,76.0,38.0,-100.00,South,174,6.0,11.0,25,0.00,,,0.00,861.000000,,2013-07-04 19:01:00,
2013-07-04 12:11:00,76.0,38.0,-100.00,South,174,6.0,11.0,25,0.00,,,0.00,861.000000,,2013-07-04 19:11:00,
2013-07-04 12:22:00,76.0,38.0,-100.00,South,174,6.0,11.0,25,0.00,,,0.00,861.000000,,2013-07-04 19:22:00,
2013-07-04 12:31:00,79.0,37.0,-100.00,NW,324,4.0,14.0,22,0.00,,,0.00,932.000000,,2013-07-04 19:31:00,
2013-07-04 12:53:00,79.0,37.0,-100.00,NW,324,4.0,14.0,22,0.00,,,0.00,932.000000,,2013-07-04 19:53:00,
2013-07-04 13:01:00,79.0,37.0,-100.00,NW,324,4.0,14.0,22,0.00,,,0.00,932.000000,,2013-07-04 20:01:00,
2013-07-04 13:11:00,79.0,37.0,-100.00,NW,324,4.0,14.0,22,0.00,,,0.00,932.000000,,2013-07-04 20:11:00,
2013-07-04 13:22:00,79.0,37.0,-100.00,NW,324,4.0,14.0,22,0.00,,,0.00,932.000000,,2013-07-04 20:22:00,
2013-07-04 13:31:00,80.0,38.0,-100.00,SSW,198,6.0,16.0,22,0.00,,,-99.99,958.000000,,2013-07-04 20:31:00,
2013-07-04 13:53:00,80.0,38.0,-100.00,SSW,198,6.0,16.0,22,0.00,,,-99.99,958.000000,,2013-07-04 20:53:00,
2013-07-04 14:01:00,80.0,38.0,-100.00,SSW,198,6.0,16.0,22,0.00,,,-99.99,958.000000,,2013-07-04 21:01:00,
2013-07-04 14:11:00,80.0,38.0,-100.00,SSW,198,6.0,16.0,22,0.00,,,-99.99,958.000000,,2013-07-04 21:11:00,
2013-07-04 14:22:00,80.0,38.0,-100.00,SSW,198,6.0,16.0,22,0.00,,,-99.99,958.000000,,2013-07-04 21:22:00,
2013-07-04 14:31:00,81.0,39.0,-100.00,WSW,240,4.0,12.0,22,0.00,,,0.00,941.000000,,2013-07-04 21:31:00,
2013-07-04 14:53:00,81.0,39.0,-100.00,WSW,240,4.0,12.0,22,0.00,,,0.00,941.000000,,2013-07-04 21:53:00,
2013-07-04 15:01:00,81.0,39.0,-100.00,WSW,240,4.0,12.0,22,0.00,,,0.00,941.000000,,2013-07-04 22:01:00,
2013-07-04 15:11:00,81.0,39.0,-100.00,WSW,240,4.0,12.0,22,0.00,,,0.00,941.000000,,2013-07-04 22:11:00,
2013-07-04 15:22:00,81.0,39.0,-100.00,WSW,240,4.0,12.0,22,0.00,,,0.00,941.000000,,2013-07-04 22:22:00,
2013-07-04 15:31:00,82.0,38.0,-100.00,NNW,347,5.0,16.0,21,0.00,,,0.00,874.000000,,2013-07-04 22:31:00,
2013-07-04 15:52:00,82.0,38.0,-100.00,NNW,347,5.0,16.0,21,0.00,,,0.00,874.000000,,2013-07-04 22:52:00,
2013-07-04 16:01:00,82.0,38.0,-100.00,NNW,347,5.0,16.0,21,0.00,,,0.00,874.000000,,2013-07-04 23:01:00,
2013-07-04 16:11:00,82.0,38.0,-100.00,NNW,347,5.0,16.0,21,0.00,,,0.00,874.000000,,2013-07-04 23:11:00,
2013-07-04 16:23:00,82.0,38.0,-100.00,NNW,347,5.0,16.0,21,0.00,,,0.00,874.000000,,2013-07-04 23:23:00,
2013-07-04 16:31:00,81.0,40.0,-100.00,NNW,337,5.0,15.0,23,0.00,,,0.00,753.000000,,2013-07-04 23:31:00,
2013-07-04 16:52:00,81.0,40.0,-100.00,NNW,337,5.0,15.0,23,0.00,,,0.00,753.000000,,2013-07-04 23:52:00,
2013-07-04 17:01:00,81.0,40.0,-100.00,NNW,337,5.0,15.0,23,0.00,,,0.00,753.000000,,2013-07-05 00:01:00,
2013-07-04 17:11:00,81.0,40.0,-100.00,NNW,337,5.0,15.0,23,0.00,,,0.00,753.000000,,2013-07-05 00:11:00,
2013-07-04 17:21:00,81.0,40.0,-100.00,NNW,337,5.0,15.0,23,0.00,,,0.00,753.000000,,2013-07-05 00:21:00,
2013-07-04 17:31:00,78.0,39.0,-100.00,North,349,6.0,15.0,25,0.00,,,0.00,602.000000,,2013-07-05 00:31:00,
2013-07-04 17:52:00,78.0,39.0,-100.00,North,349,6.0,15.0,25,0.00,,,0.00,602.000000,,2013-07-05 00:52:00,
2013-07-04 18:01:00,78.0,39.0,-100.00,North,349,6.0,15.0,25,0.00,,,0.00,602.000000,,2013-07-05 01:01:00,
2013-07-04 18:11:00,78.0,39.0,-100.00,North,349,6.0,15.0,25,0.00,,,0.00,602.000000,,2013-07-05 01:11:00,
2013-07-04 18:21:00,78.0,39.0,-100.00,North,349,6.0,15.0,25,0.00,,,0.00,602.000000,,2013-07-05 01:21:00,
2013-07-04 18:31:00,76.0,41.0,-100.00,NNW,346,5.0,15.0,29,0.00,,,0.00,423.000000,,2013-07-05 01:31:00,
2013-07-04 18:52:00,76.0,41.0,-100.00,NNW,346,5.0,15.0,29,0.00,,,0.00,423.000000,,2013-07-05 01:52:00,
2013-07-04 19:02:00,76.0,41.0,-100.00,NNW,346,5.0,15.0,29,0.00,,,0.00,423.000000,,2013-07-05 02:02:00,
2013-07-04 19:11:00,76.0,41.0,-100.00,NNW,346,5.0,15.0,29,0.00,,,0.00,423.000000,,2013-07-05 02:11:00,
2013-07-04 19:21:00,76.0,41.0,-100.00,NNW,346,5.0,15.0,29,0.00,,,0.00,423.000000,,2013-07-05 02:21:00,
2013-07-04 19:31:00,72.0,41.0,-100.00,NW,323,3.0,10.0,32,0.00,,,0.00,179.000000,,2013-07-05 02:31:00,
2013-07-04 19:52:00,72.0,41.0,-100.00,NW,323,3.0,10.0,32,0.00,,,0.00,179.000000,,2013-07-05 02:52:00,
2013-07-04 20:02:00,72.0,41.0,-100.00,NW,323,3.0,10.0,32,0.00,,,0.00,179.000000,,2013-07-05 03:02:00,
2013-07-04 20:11:00,72.0,41.0,-100.00,NW,323,3.0,10.0,32,0.00,,,0.00,179.000000,,2013-07-05 03:11:00,
2013-07-04 20:21:00,72.0,41.0,-100.00,NW,323,3.0,10.0,32,0.00,,,0.00,179.000000,,2013-07-05 03:21:00,
2013-07-04 20:31:00,66.0,42.0,-100.00,SE,139,2.0,7.0,41,-99.99,,,0.00,17.000000,,2013-07-05 03:31:00,
2013-07-04 20:52:00,66.0,42.0,-100.00,SE,139,2.0,7.0,41,-99.99,,,0.00,17.000000,,2013-07-05 03:52:00,
2013-07-04 21:01:00,66.0,42.0,-100.00,SE,139,2.0,7.0,41,-99.99,,,0.00,17.000000,,2013-07-05 04:01:00,
2013-07-04 21:11:00,66.0,42.0,-100.00,SE,139,2.0,7.0,41,-99.99,,,0.00,17.000000,,2013-07-05 04:11:00,
2013-07-04 21:21:00,66.0,42.0,-100.00,SE,139,2.0,7.0,41,-99.99,,,0.00,17.000000,,2013-07-05 04:21:00,
2013-07-04 21:31:00,62.0,44.0,-100.00,SSW,197,5.0,10.0,51,0.00,,,0.00,3.000000,,2013-07-05 04:31:00,
2013-07-04 21:53:00,62.0,44.0,-100.00,SSW,197,5.0,10.0,51,0.00,,,0.00,3.000000,,2013-07-05 04:53:00,
2013-07-04 22:01:00,62.0,44.0,-100.00,SSW,197,5.0,10.0,51,0.00,,,0.00,3.000000,,2013-07-05 05:01:00,
2013-07-04 22:12:00,62.0,44.0,-100.00,SSW,197,5.0,10.0,51,0.00,,,0.00,3.000000,,2013-07-05 05:12:00,
2013-07-04 22:21:00,62.0,44.0,-100.00,SSW,197,5.0,10.0,51,0.00,,,0.00,3.000000,,2013-07-05 05:21:00,
2013-07-04 22:31:00,59.0,43.0,-100.00,SSW,198,4.0,9.0,56,-99.99,,,0.00,0.000000,,2013-07-05 05:31:00,
2013-07-04 22:52:00,59.0,43.0,-100.00,SSW,198,4.0,9.0,56,-99.99,,,0.00,0.000000,,2013-07-05 05:52:00,
2013-07-04 23:02:00,59.0,43.0,-100.00,SSW,198,4.0,9.0,56,-99.99,,,0.00,0.000000,,2013-07-05 06:02:00,
2013-07-04 23:13:00,59.0,43.0,-100.00,SSW,198,4.0,9.0,56,-99.99,,,0.00,0.000000,,2013-07-05 06:13:00,
2013-07-04 23:23:00,59.0,43.0,-100.00,SSW,198,4.0,9.0,56,-99.99,,,0.00,0.000000,,2013-07-05 06:23:00,
2013-07-04 23:31:00,56.0,41.0,-100.00,SSW,211,3.0,7.0,57,0.00,,,0.00,0.000000,,2013-07-05 06:31:00,
2013-07-04 23:53:00,56.0,41.0,-100.00,SSW,211,3.0,7.0,57,0.00,,,0.00,0.000000,,2013-07-05 06:53:00,